Location: Sternwarte ZA, Rosenfeld-Brittheim
(48.2889°N, 8.6789°E)
Time: 06:28:04
(UTC+01:00)

ISS - Pass Details

Date: 02 December 2021
Orbit: 413 x 423 km, 51.6° (Epoch: 20 January)

Event Time Altitude Azimuth Distance (km) Brightness Sun altitude
Rises 17:51:42 0° 288° (WNW) 2,383 1.0 -12.6°
Reaches altitude 10° 17:53:51 10° 293° (WNW) 1,515 -0.2 -12.9°
Maximum altitude 17:57:12 55° 12° (NNE) 513 -3.5 -13.5°
Enters shadow 17:58:50 26° 81° (E) 864 -2.8 -13.7°
